Salt Lake City, UT

5:15 PM MDT on March 24, 2017 (GMT -0600)
Salt Lake City International

Weather History for KSLC - April, 2013

Change the Weather History Date:

Wednesday, April 24, 2013

  Actual Average Record
Temperature  
Mean Temperature 49 °F 53 °F  
Max Temperature 61 °F 64 °F 86 °F (2012)
Min Temperature 37 °F 41 °F 27 °F (1950)
Degree Days  
Heating Degree Days 16 13  
Month to date heating degree days 414 369  
Since 1 July heating degree days 5272 5287  
Cooling Degree Days 0 0  
Month to date cooling degree days 0 0  
Year to date cooling degree days 0 0  
Moisture  
Dew Point 21 °F    
Average Humidity 37    
Maximum Humidity 54    
Minimum Humidity 19    
Precipitation  
Precipitation 0.00 in 0.06 in 0.70 in (1945)
Month to date precipitation 1.96 1.57  
Year to date precipitation 4.87 5.86  
Snow  
Snow 0.00 in 0.10 in 1.60 in (1958)
Month to date snowfall T 3.6  
Since 1 July snowfall 69.8 55.5  
Snow Depth 0.00 in    
Sea Level Pressure  
Sea Level Pressure 30.13 in    
Wind  
Wind Speed 5 mph (NNW)    
Max Wind Speed 15 mph    
Max Gust Speed 18 mph    
Visibility 10 miles    
Events      
T = Trace of Precipitation, MM = Missing Value Source: NWS Daily Summary

Daily Weather History Graph

Daily Weather History Graph

Search for Another Location

Airport or City:

Trip Planner

Search our weather history database for the weather conditions in past years. The results will help you decide how hot, cold, wet, or windy it might be!

Date:

Astronomy

Apr. 24, 2013 Rise Set
Actual Time 6:35 AM MDT 8:17 PM MDT
Civil Twilight 6:06 AM MDT 8:46 PM MDT
Nautical Twilight 5:30 AM MDT 9:21 PM MDT
Astronomical Twilight 4:53 AM MDT 9:59 PM MDT
Moon 7:24 PM MDT 5:41 AM MDT
Length of Visible Light 14h 40m
Length of Day
13h 41m
Waxing Gibbous, 98% of the Moon is Illuminated
Apr 24
Waxing Gibbous
Apr 25
Full
May 2
Last Quarter
May 9
New
May 17
First Quarter

Hourly Weather History & Observations

Time (MDT) Temp. Windchill Dew Point Humidity Pressure Visibility Wind Dir Wind Speed Gust Speed Precip Events Conditions
12:53 AM 44.1 °F 42.5 °F 19.9 °F 38% 30.11 in 10.0 mi NNW 3.5 mph - N/A   Mostly Cloudy
1:53 AM 43.0 °F 40.3 °F 19.0 °F 38% 30.10 in 10.0 mi NNE 4.6 mph - N/A   Overcast
2:53 AM 45.0 °F 41.8 °F 14.0 °F 29% 30.10 in 10.0 mi North 5.8 mph - N/A   Mostly Cloudy
3:53 AM 42.8 °F - 15.8 °F 34% 30.13 in 10.0 mi Calm Calm - N/A   Mostly Cloudy
4:53 AM 41.0 °F 39.0 °F 21.0 °F 45% 30.12 in 10.0 mi WSW 3.5 mph - N/A   Mostly Cloudy
5:53 AM 39.0 °F - 24.1 °F 55% 30.14 in 10.0 mi Calm Calm - N/A   Scattered Clouds
6:53 AM 37.0 °F 33.3 °F 21.0 °F 52% 30.17 in 10.0 mi SE 4.6 mph - N/A   Partly Cloudy
7:53 AM 42.1 °F 40.2 °F 17.1 °F 37% 30.18 in 10.0 mi SSE 3.5 mph - N/A   Partly Cloudy
8:53 AM 46.0 °F - 15.1 °F 29% 30.19 in 10.0 mi Calm Calm - N/A   Clear
9:53 AM 51.1 °F - 17.1 °F 26% 30.19 in 10.0 mi NW 4.6 mph - N/A   Clear
10:53 AM 53.1 °F - 24.1 °F 32% 30.20 in 10.0 mi NW 8.1 mph - N/A   Partly Cloudy
11:53 AM 55.0 °F - 21.0 °F 27% 30.20 in 10.0 mi NW 10.4 mph - N/A   Partly Cloudy
12:53 PM 55.9 °F - 18.0 °F 23% 30.19 in 10.0 mi WNW 10.4 mph - N/A   Partly Cloudy
1:53 PM 57.0 °F - 15.1 °F 19% 30.17 in 10.0 mi NNW 8.1 mph - N/A   Partly Cloudy
2:53 PM 59.0 °F - 18.0 °F 20% 30.14 in 10.0 mi NW 8.1 mph - N/A   Partly Cloudy
3:53 PM 60.1 °F - 21.9 °F 23% 30.11 in 10.0 mi North 10.4 mph - N/A   Clear
4:53 PM 60.1 °F - 19.9 °F 21% 30.10 in 10.0 mi North 8.1 mph - N/A   Clear
5:53 PM 59.0 °F - 21.9 °F 24% 30.09 in 10.0 mi West 10.4 mph - N/A   Clear
6:53 PM 57.9 °F - 23.0 °F 26% 30.09 in 10.0 mi North 5.8 mph - N/A   Clear
7:53 PM 54.0 °F - 26.1 °F 34% 30.08 in 10.0 mi North 8.1 mph - N/A   Clear
8:53 PM 52.0 °F - 25.0 °F 35% 30.07 in 10.0 mi NNW 4.6 mph - N/A   Clear
9:53 PM 46.9 °F - 30.0 °F 52% 30.08 in 10.0 mi West 6.9 mph - N/A   Clear
10:53 PM 48.0 °F - 28.9 °F 48% 30.06 in 10.0 mi Calm Calm - N/A   Clear
11:53 PM 48.9 °F - 27.0 °F 43% 30.05 in 10.0 mi Calm Calm - N/A   Clear